Location: Casone le Fosse
(44.6547°N, 12.1103°E)
Time: 12:10:37
(UTC+00:00)

USA 306 - Pass Details

Date: 29 October 2020
Orbit: 569 x 577 km, 54.0° (Epoch: 22 November)

Event Time Altitude Azimuth Distance (km) Brightness Sun altitude
Rises 17:57:15 0° 304° (NW) 2,785 7.3 -20.6°
Reaches altitude 10° 17:59:31 10° 304° (NW) 1,883 6.3 -21.0°
Maximum altitude 18:03:48 81° 218° (SW) 584 2.8 -21.8°
Enters shadow 18:04:26 63° 146° (SE) 641 2.9 -21.9°
